Regional Weather Roundup
Issued by NWS

Home | Current Version | Previous Version | Graphics & Text | Print | Product List | Glossary On
Versions: 1 2 3 4 5 6 7 8 9 10 11 12 13 14 15 16 17 18 19 20 21 22 23 24 25 26 27 28 29 30 31 32 33 34 35 36 37 38 39 40 41 42 43 44 45 46 47 48 49 50
000
ASUS45 KBOU 031607
RWRCO

WEATHER ROUNDUP FOR COLORADO
NATIONAL WEATHER SERVICE DENVER/BOULDER CO
900 AM MST TUE MAR 03 2015

NOTE: "FAIR" INDICATES FEW OR NO CLOUDS BELOW 12000 FEET WITH NO
SIGNIFICANT WEATHER AND/OR OBSTRUCTIONS TO VISIBILITY.

COZ001>005-013-030-031-031700-
...NORTHWEST COLORADO...

CITY           SKY/WX    TMP DP  RH WIND       PRES   REMARKS
CRAIG          CLOUDY    29  25  85 NE7       29.78S FOG     WCI  22
HAYDEN         CLOUDY    27  21  80 NE5       29.77S VSB 3/4 WCI  21
MEEKER         MOSUNNY   34  24  67 SW8       29.77S WCI  27
MOUNT WERNER   NOT AVBL
STEAMBOAT SPGS CLOUDY    25  21  83 CALM      29.77S
WALDEN         CLOUDY    23  18  80 SW7       29.72S WCI  15
$$

COZ006>008-011-031700-
...WEST CENTRAL VALLEYS...

CITY           SKY/WX    TMP DP  RH WIND       PRES   REMARKS
GRAND JUNCTION CLOUDY    37  30  75 NE5       29.81F
MONTROSE       PTSUNNY   34  24  67 S5        29.85S WCI  30
EAGLE          MOSUNNY   34  25  69 W5        29.79S WCI  30
RIFLE          CLOUDY    35  28  75 CALM      29.80F
DELTA          MOSUNNY   38  31  77 CALM      29.84S
NUCLA          CLOUDY    34  27  75 S6        29.88F WCI  29
$$

COZ017>023-064>068-031700-
...SOUTHWEST COLORADO...

CITY           SKY/WX    TMP DP  RH WIND       PRES   REMARKS
DURANGO        MOSUNNY   29  25  85 E6        29.88S WCI  23
CORTEZ         CLOUDY    35  29  78 NE3       29.88S
PAGOSA SPRINGS CLOUDY    29  26  91 S6        29.88S WCI  22
TELLURIDE      PTSUNNY   27  17  65 CALM      29.82F
WOLF CREEK PAS CLOUDY    10   9  92 SW6G25    29.83R WCI   1
$$

COZ009-010-012-014-032>034-037-058>063-031700-
...CENTRAL COLORADO...

CITY           SKY/WX    TMP DP  RH WIND       PRES   REMARKS
ASPEN          MOSUNNY   25  22  88 CALM      29.76S
BUENA VISTA    MOSUNNY   31  11  43 W12       29.76S WCI  22
COPPER MTN     MOSUNNY   18   5  57 SW13G23   29.71S HAZE    WCI   4
BERTHOUD PASS  CLOUDY     9   1  72 W21G32    29.69  HAZE    WCI -11
COTTONWOOD PAS PTSUNNY   28   7  40 W16G29    29.74F WCI  17
GUNNISON       PTSUNNY   28  18  64 SW12      29.83S WCI  18
KREMMLING      LGT SNOW  28  21  74 N9        29.77S WCI  20
LEADVILLE      MOSUNNY   20   6  55 N6        29.72F WCI  12
SALIDA         MOSUNNY   37  17  44 W14G23    29.86S
SUNLIGHT       LGT SNOW  21  18  86 CALM        N/A  VSB 3/4
WILKERSON PASS SUNNY     18  10  73 SW3       29.76S
$$

COZ069>075-031700-
...SAN LUIS VALLEY/SANGRE DE CRISTO MOUNTAINS...

CITY           SKY/WX    TMP DP  RH WIND       PRES   REMARKS
ALAMOSA        SUNNY     31  18  58 S16       29.82R WCI  20
LA VETA PASS   PTSUNNY   27  16  63 S12G20    29.80S WCI  16
SAGUACHE       MOSUNNY   30  14  51 E3        29.82R
$$

COZ035-036-038>040-031700-
...NORTHERN COLORADO FRONT RANGE...

CITY           SKY/WX    TMP DP  RH WIND       PRES   REMARKS
DENVER INTL AP CLOUDY    22  17  81 N18       29.89R WCI   7
DMNS CITY PARK   N/A     24  18  78 NE9G17    29.90S WCI  14
AURORA         LGT SNOW  22  19  87 NE14      29.89R FOG     WCI   9
FRONT RANGE AP CLOUDY    25  21  86 NE15      29.89  FOG     WCI  12
ERIE MUNI ARPT CLOUDY    25  17  71 NE8       29.92R WCI  16
BOULDER MUN AP CLOUDY    27  18  69 E7        29.90R WCI  19
CENTENNIAL     CLOUDY    22  18  85 N14       29.87R WCI   9
BROOMFIELD     CLOUDY    23  18  80 N14       29.89  WCI  11
FORT COLLINS   PTSUNNY   19  12  73 NE13      29.93R WCI   7
LONGMONT       CLOUDY    27  17  65 NE9       29.94R WCI  18
$$

COZ041-046-047-076>085-087-088-031700-
...PIKES PEAK/PALMER DIVIDE AND SOUTHERN FOOTHILLS...

CITY           SKY/WX    TMP DP  RH WIND       PRES   REMARKS
COLO. SPRINGS  MOSUNNY   32  21  64 N24G31    29.79R WCI  19
A. F. ACADEMY  FLURRIES  25  19  80 N23G32    29.79R WCI  10
ELLICOTT       NOT AVBL
FALCON         CLOUDY    24  22  93 N17G25    29.80R FOG     WCI  11
FORT CARSON    MOSUNNY   42  12  29 SW5       29.75R
LIMON          LGT SNOW  25  23  92 N20       29.85R VSB 3/4 WCI  11
MONUMENT HILL  FOG       19  19 100 N10       29.81R VSB<1/4 WCI   8
TRINIDAD       MOSUNNY   45  17  32 W14       29.77F
$$

COZ042>045-048>051-090-091-031700-
...NORTHEAST COLORADO...

CITY           SKY/WX    TMP DP  RH WIND       PRES   REMARKS
GREELEY ARPT   CLOUDY    21   9  58 N17       29.92R WCI   7
AKRON          CLOUDY    21  18  88 NE16      29.89R WCI   7
BURLINGTON     CLOUDY    31  27  85 N20G25    29.84R WCI  19
WRAY           CLOUDY    28  21  75 N21G29    29.91R WCI  15
STERLING       CLOUDY    27  16  63 N21G29    29.91R WCI  13
HOLYOKE        NOT AVBL
FORT MORGAN    CLOUDY    23  15  72 N22       29.92R WCI   7
$$

COZ086-089-092>099-031700-
...SOUTHEAST COLORADO...

CITY           SKY/WX    TMP DP  RH WIND       PRES   REMARKS
PUEBLO         MOSUNNY   42  19  39 SE5       29.77R
LA JUNTA       CLOUDY    46  24  42 W15       29.78R
LAMAR          CLOUDY    44  29  55 W13       29.76R
SPRINGFIELD      N/A     45  28  51 W12       29.78F
$$



USA.gov is the U.S. government's official web portal to all federal, state and local government web resources and services.